Wind_Speed
22 21 18 14 10 6 2 3 11 18 18 15 15 16 19 15 16 16 16 16 13 13 11 11 10 11 11 11 12 12 11 12 13 14 15 15 15 15 15 16 16 17 17 17 18 18 18 17 18
19 18 15 13 10 5 4 5 20 22 16 8 13 15 17 12 14 15 15 14 11 11 10 10 9 8 9 9 9 9 9 10 11 13 14 15 16 17 17 18 18 18 18 19 19 19 19 18 18
14 12 11 11 12 6 4 13 23 20 12 13 17 15 14 12 12 12 12 12 11 11 11 11 10 9 8 8 8 9 9 10 11 13 14 15 16 16 16 17 17 17 17 18 18 19 19 19 19
10 10 11 13 12 1 8 13 13 15 14 14 15 16 12 12 11 10 9 9 8 9 11 12 12 11 10 10 10 10 10 11 13 14 14 15 15 14 13 13 13 13 13 14 15 16 17 17 18
10 11 15 15 9 2 10 6 7 13 12 11 12 15 12 11 11 10 8 7 5 5 8 10 11 12 12 12 12 12 13 14 14 15 14 14 13 13 12 12 12 12 13 13 14 14 15 16 17
13 16 18 12 4 6 10 9 9 7 7 8 10 14 12 12 11 9 8 6 5 5 7 8 9 10 11 12 13 14 14 14 14 14 13 13 13 13 13 14 14 15 15 16 16 16 16 16 17
15 20 17 8 6 10 10 8 7 6 6 6 8 13 12 12 12 10 8 7 5 5 7 9 9 9 10 11 12 12 12 12 13 14 14 14 14 15 16 17 17 18 18 18 18 19 19 19 20
14 16 18 9 8 11 11 8 6 6 8 6 7 14 12 13 13 12 10 8 7 6 7 7 8 9 9 10 11 11 12 13 14 15 16 16 17 17 18 19 19 19 19 19 20 20 20 21 21
13 13 16 9 7 12 11 7 7 8 7 6 11 12 11 13 14 13 12 10 9 8 7 7 8 9 9 10 10 11 12 13 15 16 17 17 18 18 19 19 19 19 18 18 19 19 19 19 19
14 16 12 6 10 10 10 10 10 7 8 8 11 10 10 12 14 14 13 11 10 9 9 8 9 10 11 12 13 13 14 15 16 17 17 17 17 16 17 17 18 18 17 18 18 18 18 18 18
15 16 12 9 17 16 11 11 11 9 10 14 15 12 13 12 16 15 14 13 11 11 11 11 11 11 12 14 16 16 16 16 16 16 17 16 16 15 15 15 15 15 15 16 17 17 17 17 18
16 19 15 13 19 24 18 11 14 13 14 17 18 15 16 17 18 18 17 15 14 13 12 12 13 14 14 15 16 17 17 16 16 16 15 15 14 14 14 14 14 15 15 16 17 17 17 19 21
17 20 19 18 18 19 18 15 16 17 17 18 18 18 19 20 20 18 18 19 18 17 16 14 15 16 16 16 17 17 16 15 15 15 15 15 14 15 15 15 16 16 17 17 19 20 19 21 22
20 21 23 21 20 18 18 18 18 18 16 17 16 20 23 22 22 18 16 21 21 20 19 18 17 16 16 16 17 17 16 16 15 15 16 17 16 16 17 16 18 19 20 21 22 21 22 23 24
24 24 25 24 21 19 17 18 16 16 18 21 20 22 26 26 22 22 20 22 22 21 21 20 18 16 16 16 18 19 18 18 17 17 18 18 17 19 20 19 20 23 24 24 26 27 27 29 30
27 27 26 23 22 20 19 21 16 17 22 25 25 23 25 28 27 26 25 23 21 21 22 21 20 17 17 17 20 20 21 20 20 19 20 21 21 22 23 23 25 27 28 30 32 33 34 37 38
29 28 27 23 21 19 21 23 18 18 27 31 29 26 26 29 32 31 28 24 23 22 22 23 22 20 21 20 23 23 24 23 23 23 23 24 25 25 26 27 29 31 32 34 36 37 39 41 43
26 24 23 22 18 21 26 27 24 21 27 31 31 31 30 31 35 35 31 27 23 23 24 26 26 24 25 25 27 28 29 29 28 27 27 28 29 30 30 31 34 36 38 39 41 43 45 47 49
24 22 20 20 19 23 30 33 32 28 29 32 33 33 33 33 37 39 36 29 25 24 25 28 29 29 31 31 32 33 34 34 33 33 33 33 33 34 35 36 38 40 43 45 46 48 50 52 54
25 28 28 27 26 27 29 32 35 36 34 32 36 38 37 36 40 42 40 35 31 27 28 31 33 34 36 37 37 38 38 39 39 38 38 38 38 38 39 40 42 44 47 49 51 52 53 55 56
25 27 29 30 31 33 34 36 38 42 39 37 38 42 43 39 41 44 42 39 36 33 31 33 36 38 39 40 41 42 43 43 44 43 43 43 42 41 41 43 45 48 49 49 50 49 51 52 54
24 25 27 29 31 33 33 36 36 36 33 32 33 38 42 38 39 43 43 41 38 35 33 35 37 39 41 42 44 45 47 47 47 47 47 47 44 43 43 44 45 46 46 46 48 49 51 52 55
19 19 21 23 27 32 33 37 36 32 29 31 30 33 39 38 36 39 39 40 39 35 34 36 38 40 42 44 47 48 49 49 49 49 48 46 43 43 43 43 42 44 45 46 49 51 53 55 59
16 17 20 22 24 29 27 29 32 28 27 29 26 30 34 34 34 35 36 37 37 36 35 37 39 41 43 45 47 49 50 49 49 49 47 45 45 44 43 43 44 45 46 48 51 53 56 59 61
19 18 18 19 21 21 17 21 22 20 21 25 26 29 31 32 36 37 35 35 36 35 36 37 40 42 43 45 47 48 49 48 47 46 46 46 46 46 46 45 46 48 49 51 53 56 59 61 62
20 21 19 18 19 18 16 17 16 17 19 24 29 33 36 38 39 38 36 35 35 35 36 38 40 41 43 44 45 46 46 44 44 45 45 47 48 48 48 49 50 51 53 54 56 58 61 62 62
21 23 20 21 21 23 23 23 21 20 23 25 27 29 32 34 33 32 32 33 34 35 36 37 38 39 40 41 42 43 44 44 44 46 47 48 50 51 51 52 52 53 54 56 58 60 61 62 62
23 21 22 24 24 25 23 20 18 19 21 22 24 26 29 29 27 27 30 33 35 35 36 37 37 38 40 41 42 43 44 45 46 47 47 50 52 52 52 53 53 55 56 57 58 59 60 61 63
21 21 22 24 25 25 25 21 18 22 24 24 23 25 30 30 29 30 32 32 33 34 36 36 37 38 40 42 44 45 45 47 47 48 49 51 52 52 52 53 54 55 57 59 59 59 60 62 64
23 25 25 27 27 27 29 27 24 29 30 29 28 30 37 37 33 31 31 31 32 33 34 36 38 40 42 44 45 46 48 49 51 51 50 51 52 52 53 54 56 58 60 59 59 59 61 63 64
Wind_Direction
222 223 225 222 213 193 101 50 246 253 252 255 271 277 276 281 284 284 284 284 278 267 266 263 258 255 255 254 253 252 250 247 247 247 247 247 247 248 250 253 255 256 257 257 257 257 257 259 262
224 226 226 218 198 161 13 242 243 263 265 276 282 274 278 288 290 287 284 280 272 265 263 262 262 261 261 260 259 256 253 253 251 250 249 250 251 252 254 255 257 259 261 261 262 262 263 263 264
219 218 212 188 159 133 206 218 244 270 285 293 290 284 293 299 296 291 284 277 270 266 266 267 269 270 270 270 270 269 265 264 264 262 259 257 256 256 258 259 259 260 262 263 263 264 265 265 265
202 189 167 161 125 37 246 213 243 270 277 284 293 298 311 310 303 295 288 283 280 278 277 274 273 273 275 277 277 277 273 272 272 271 267 263 260 257 256 256 257 257 258 261 264 265 266 265 265
177 164 151 135 105 218 262 233 249 277 292 306 296 303 321 319 310 304 299 298 304 311 299 292 282 274 273 274 274 275 272 270 269 268 266 260 256 253 251 253 255 257 260 262 263 265 265 266 267
158 149 132 107 98 224 244 248 259 275 289 307 301 307 321 320 313 308 308 315 331 349 340 331 307 291 284 281 279 277 274 269 266 262 259 256 255 256 257 260 264 266 268 268 268 267 267 268 269
164 151 129 132 189 227 234 231 238 252 271 280 297 302 314 317 312 311 314 320 329 355 351 352 338 321 310 301 291 283 277 270 267 266 263 262 263 266 268 270 274 276 276 274 272 270 269 269 270
173 162 137 142 187 220 239 229 221 236 247 252 276 281 296 314 316 316 317 318 317 329 336 345 345 336 324 313 301 290 283 276 273 271 270 269 269 271 272 275 276 277 276 273 271 270 269 270 271
169 166 130 125 211 220 231 223 212 237 247 265 268 274 304 316 318 319 318 315 311 312 315 323 329 331 325 316 308 297 291 287 282 278 276 276 276 276 275 275 275 275 273 271 270 269 268 269 270
171 157 124 141 209 224 224 224 212 235 244 253 271 288 304 315 319 318 319 317 313 310 308 310 314 317 316 313 309 303 296 291 287 284 281 280 279 278 276 276 275 274 272 270 269 268 268 269 270
182 177 159 204 205 208 208 233 233 238 255 257 248 257 285 309 324 323 323 325 324 318 311 307 304 304 306 308 307 305 300 295 291 287 284 283 283 281 279 279 279 278 276 276 275 274 274 275 274
198 197 195 210 218 220 208 218 249 245 255 269 270 272 301 315 319 319 324 328 329 327 322 312 307 303 302 304 304 304 302 299 297 295 295 295 295 294 289 287 284 286 286 286 287 287 286 286 287
215 217 221 224 223 224 218 213 233 246 253 266 276 286 294 305 311 310 318 325 327 328 328 322 312 305 302 304 304 305 305 306 307 308 309 308 307 306 303 303 299 298 296 294 292 292 292 291 292
224 229 234 236 236 233 234 229 225 237 253 264 268 276 288 295 302 297 300 315 319 322 324 324 316 306 300 300 301 303 306 310 314 315 316 316 316 310 307 306 303 302 299 298 295 294 293 295 296
229 234 241 243 244 241 242 246 234 236 244 250 255 268 282 289 295 293 298 304 309 315 317 319 315 305 297 296 296 299 302 306 309 311 313 313 313 310 307 305 302 299 298 299 297 296 296 295 295
237 239 243 247 249 244 238 244 242 248 248 245 250 261 275 285 288 290 293 297 301 306 308 310 311 303 295 292 293 297 300 301 302 303 304 304 304 303 303 302 300 298 298 298 297 297 296 296 296
238 244 247 247 253 256 249 248 230 236 248 246 249 258 269 279 285 286 288 293 295 296 298 300 304 301 295 291 291 294 295 296 297 297 296 296 298 298 299 300 300 298 298 297 297 298 297 296 295
242 248 254 256 248 250 250 253 249 236 247 250 256 263 269 273 279 282 284 288 287 287 288 290 295 296 293 292 290 292 292 292 292 291 292 292 293 293 295 297 298 298 297 296 297 297 295 294 292
230 228 237 251 256 247 250 252 253 246 249 260 260 261 266 270 275 279 280 288 283 281 281 283 287 290 289 289 289 291 292 291 291 288 286 287 288 289 290 292 293 295 295 295 296 294 292 291 289
235 230 227 228 227 231 238 249 254 251 242 249 264 267 266 268 271 275 278 286 283 277 276 277 280 283 284 286 287 288 290 290 291 288 285 284 283 284 286 288 290 292 292 293 293 293 292 291 290
240 242 239 239 238 235 236 244 251 259 262 256 254 264 269 270 269 273 274 279 279 274 274 275 276 278 279 282 284 286 288 288 289 289 287 284 281 281 284 288 291 291 291 292 292 293 293 293 292
243 247 247 244 245 245 245 254 259 268 277 275 267 263 268 273 272 272 274 275 274 269 269 272 274 275 276 279 281 283 285 287 289 290 288 286 285 286 288 291 292 291 292 293 293 294 293 293 292
244 248 250 252 255 257 252 255 259 262 264 267 274 269 265 271 274 273 270 268 270 267 268 270 272 273 274 275 278 281 284 287 289 290 289 289 291 291 292 292 292 292 293 293 294 294 293 293 291
246 250 254 256 258 263 270 270 272 267 261 266 272 266 265 270 271 269 268 267 266 267 269 270 271 271 272 275 278 282 286 288 289 290 290 291 292 292 292 292 293 293 294 294 294 293 291 290 290
256 260 264 268 273 284 295 287 289 285 266 253 250 251 258 264 267 267 267 267 266 267 269 270 271 273 275 278 281 284 286 287 287 288 289 291 292 293 294 294 296 296 295 294 293 291 291 290 291
257 264 264 257 257 265 265 272 278 268 253 247 248 253 261 266 269 270 269 266 265 267 269 270 272 275 278 282 284 286 286 287 287 287 289 290 292 294 296 297 298 297 296 295 294 293 292 292 293
244 250 264 269 268 264 260 256 257 278 281 272 266 265 269 269 270 268 265 262 262 264 266 269 272 276 279 282 284 285 286 286 286 288 290 291 293 295 297 298 297 296 296 295 295 295 296 296 297
260 252 247 252 260 266 270 271 273 265 264 264 262 261 259 261 269 272 266 262 262 263 265 268 272 275 278 280 282 284 286 287 289 290 292 293 294 296 297 297 296 296 297 297 297 298 298 298 298
256 260 253 250 249 257 266 267 268 267 263 264 271 273 269 270 277 274 268 265 263 264 266 270 273 275 277 280 283 285 288 289 289 291 293 294 295 295 295 294 295 296 297 297 297 298 298 299 299
250 251 251 255 259 259 259 261 262 262 261 260 259 260 265 270 275 271 268 265 265 266 268 271 273 276 278 281 284 287 290 291 291 292 293 294 293 292 293 296 297 297 297 297 298 299 300 301 301
Height
5884 5887 5890 5894 5898 5900 5901 5905 5907 5901 5898 5897 5898 5897 5894 5894 5894 5895 5891 5889 5891 5889 5889 5888 5887 5887 5886 5886 5887 5887 5887 5888 5888 5889 5890 5891 5891 5891 5891 5892 5892 5892 5892 5893 5893 5893 5894 5894 5894
5883 5885 5889 5893 5896 5897 5901 5906 5901 5897 5895 5894 5896 5895 5892 5893 5892 5891 5889 5888 5889 5888 5888 5887 5886 5886 5885 5885 5885 5885 5885 5886 5886 5887 5887 5888 5888 5888 5888 5889 5889 5889 5889 5889 5890 5890 5890 5891 5891
5882 5884 5888 5891 5893 5895 5899 5901 5896 5897 5896 5895 5894 5893 5892 5892 5891 5890 5888 5887 5887 5887 5886 5886 5885 5885 5884 5884 5883 5883 5883 5884 5884 5884 5885 5885 5885 5885 5885 5886 5886 5886 5886 5886 5886 5886 5887 5887 5888
5881 5884 5887 5892 5892 5896 5897 5896 5894 5896 5896 5895 5892 5890 5890 5890 5890 5889 5887 5886 5886 5886 5885 5885 5884 5884 5883 5883 5882 5882 5882 5882 5882 5882 5882 5882 5882 5882 5882 5882 5883 5883 5883 5883 5883 5883 5883 5883 5884
5880 5884 5887 5890 5894 5899 5897 5894 5895 5895 5895 5893 5891 5888 5889 5889 5889 5888 5887 5886 5885 5885 5884 5883 5883 5882 5882 5881 5881 5881 5880 5880 5880 5880 5879 5879 5879 5879 5879 5879 5880 5880 5880 5880 5879 5879 5879 5879 5880
5880 5884 5887 5891 5897 5901 5899 5896 5896 5896 5894 5893 5890 5887 5888 5888 5888 5888 5886 5885 5884 5884 5882 5882 5881 5881 5880 5880 5880 5879 5879 5878 5878 5877 5877 5877 5877 5877 5877 5877 5877 5877 5876 5876 5876 5876 5876 5876 5876
5880 5882 5884 5892 5899 5901 5899 5896 5896 5894 5894 5893 5891 5887 5887 5887 5887 5887 5886 5884 5883 5883 5881 5881 5880 5879 5879 5878 5878 5877 5876 5876 5875 5875 5875 5875 5875 5875 5875 5874 5874 5874 5873 5873 5873 5873 5872 5872 5872
5880 5882 5883 5890 5896 5900 5898 5896 5895 5894 5893 5892 5892 5888 5887 5887 5886 5885 5884 5883 5882 5882 5881 5880 5879 5878 5877 5877 5876 5875 5875 5874 5873 5873 5872 5872 5872 5872 5871 5871 5870 5870 5870 5869 5869 5869 5869 5868 5868
5880 5884 5884 5891 5897 5897 5896 5896 5896 5894 5893 5892 5891 5888 5887 5886 5885 5884 5883 5883 5882 5881 5880 5879 5878 5877 5876 5875 5874 5874 5873 5872 5871 5871 5870 5869 5869 5868 5868 5867 5867 5866 5866 5866 5865 5865 5865 5865 5864
5880 5883 5884 5890 5895 5894 5894 5895 5895 5894 5894 5892 5889 5887 5886 5885 5885 5883 5882 5881 5880 5879 5879 5878 5877 5876 5875 5874 5873 5872 5871 5870 5869 5868 5867 5866 5866 5865 5864 5864 5863 5862 5862 5861 5861 5861 5861 5860 5860
5878 5881 5881 5887 5890 5891 5892 5893 5893 5894 5892 5890 5885 5883 5883 5882 5883 5882 5880 5879 5878 5877 5876 5876 5875 5874 5874 5872 5871 5870 5869 5868 5867 5865 5864 5863 5862 5862 5861 5860 5859 5858 5858 5857 5857 5856 5856 5856 5856
5876 5878 5879 5883 5886 5887 5888 5891 5892 5892 5890 5888 5883 5878 5880 5880 5880 5879 5878 5877 5876 5875 5874 5873 5872 5871 5871 5870 5869 5868 5867 5866 5864 5863 5861 5860 5858 5858 5856 5856 5855 5855 5855 5854 5853 5852 5852 5852 5850
5873 5876 5877 5879 5881 5883 5885 5887 5889 5889 5888 5885 5882 5879 5880 5879 5879 5877 5874 5874 5873 5873 5872 5871 5870 5869 5869 5868 5866 5865 5864 5863 5862 5860 5858 5857 5856 5855 5853 5852 5851 5851 5850 5850 5849 5848 5848 5847 5845
5870 5873 5874 5875 5877 5880 5881 5883 5885 5887 5886 5884 5882 5879 5877 5878 5876 5872 5871 5871 5871 5870 5869 5869 5868 5867 5867 5866 5864 5863 5862 5861 5860 5858 5856 5854 5854 5852 5851 5850 5848 5847 5846 5846 5844 5844 5843 5841 5840
5866 5868 5870 5871 5873 5876 5878 5879 5881 5884 5885 5883 5882 5881 5877 5875 5873 5870 5869 5869 5869 5868 5867 5866 5865 5865 5865 5864 5862 5861 5860 5859 5858 5856 5854 5852 5851 5850 5848 5848 5846 5844 5843 5842 5840 5839 5838 5836 5834
5861 5863 5864 5868 5869 5871 5875 5876 5879 5882 5881 5880 5879 5879 5876 5872 5871 5869 5868 5866 5865 5866 5865 5863 5863 5863 5862 5862 5860 5859 5858 5856 5855 5853 5851 5849 5848 5846 5845 5844 5842 5840 5839 5837 5835 5834 5832 5829 5827
5855 5857 5860 5863 5864 5867 5869 5871 5875 5878 5876 5874 5874 5875 5874 5870 5866 5864 5862 5862 5862 5862 5862 5860 5860 5860 5859 5858 5857 5856 5854 5853 5852 5850 5848 5846 5844 5842 5840 5839 5836 5834 5832 5830 5827 5825 5823 5820 5817
5851 5853 5855 5858 5862 5865 5865 5866 5869 5871 5869 5868 5869 5869 5869 5868 5863 5858 5856 5857 5856 5858 5858 5856 5856 5856 5855 5854 5853 5851 5850 5849 5847 5845 5843 5841 5839 5836 5834 5832 5829 5826 5823 5821 5819 5816 5813 5810 5806
5845 5848 5854 5858 5861 5862 5862 5861 5863 5865 5865 5863 5863 5864 5864 5863 5859 5854 5851 5851 5850 5851 5853 5852 5851 5851 5850 5849 5848 5846 5845 5843 5842 5840 5837 5834 5832 5829 5826 5824 5821 5818 5814 5812 5809 5806 5802 5798 5794
5839 5841 5845 5850 5853 5855 5856 5855 5853 5854 5857 5857 5855 5855 5856 5857 5853 5849 5847 5845 5845 5845 5847 5847 5846 5845 5844 5843 5842 5840 5838 5837 5835 5832 5830 5827 5824 5821 5818 5815 5812 5809 5804 5802 5798 5794 5790 5786 5781
5835 5837 5840 5843 5845 5846 5847 5846 5846 5846 5849 5850 5850 5847 5848 5850 5846 5842 5840 5839 5839 5839 5840 5840 5839 5838 5837 5836 5835 5833 5831 5829 5827 5824 5821 5818 5815 5812 5809 5806 5802 5798 5793 5790 5786 5782 5778 5773 5768
5829 5831 5833 5834 5836 5837 5840 5838 5840 5840 5840 5840 5841 5840 5839 5841 5838 5834 5833 5832 5832 5832 5832 5833 5832 5831 5829 5828 5827 5825 5822 5820 5818 5815 5811 5808 5805 5803 5800 5796 5792 5787 5782 5779 5774 5770 5765 5761 5756
5823 5825 5827 5828 5829 5830 5831 5830 5831 5834 5835 5834 5834 5833 5831 5831 5830 5826 5825 5824 5824 5824 5826 5825 5824 5822 5822 5820 5819 5816 5813 5811 5808 5804 5801 5798 5795 5793 5790 5786 5781 5776 5772 5768 5763 5758 5753 5748 5742
5818 5820 5821 5821 5823 5822 5824 5824 5823 5827 5829 5830 5829 5825 5822 5821 5819 5816 5816 5817 5817 5817 5817 5817 5816 5814 5813 5812 5810 5807 5804 5801 5798 5795 5791 5788 5785 5783 5780 5776 5771 5766 5761 5757 5751 5746 5740 5735 5729
5813 5815 5816 5816 5816 5817 5819 5818 5818 5820 5821 5822 5821 5818 5815 5813 5810 5809 5809 5809 5808 5808 5808 5808 5807 5806 5805 5803 5801 5799 5795 5792 5789 5785 5782 5778 5774 5772 5769 5764 5760 5754 5749 5743 5738 5732 5726 5720 5715
5808 5809 5812 5813 5815 5816 5817 5816 5816 5813 5813 5813 5813 5812 5809 5807 5804 5803 5802 5801 5800 5799 5799 5799 5798 5797 5796 5794 5792 5789 5785 5782 5779 5775 5772 5768 5763 5760 5756 5751 5746 5741 5735 5729 5723 5717 5711 5705 5700
5803 5804 5806 5807 5807 5807 5808 5809 5811 5809 5806 5805 5805 5804 5801 5797 5796 5796 5795 5793 5792 5791 5791 5790 5790 5789 5787 5785 5782 5779 5776 5773 5769 5765 5762 5758 5753 5748 5744 5739 5733 5727 5722 5716 5709 5703 5696 5691 5685
5796 5799 5801 5801 5802 5801 5802 5803 5806 5804 5800 5797 5795 5794 5791 5788 5788 5788 5786 5784 5784 5783 5783 5783 5782 5781 5779 5776 5773 5770 5766 5763 5759 5755 5751 5746 5741 5736 5730 5725 5719 5714 5708 5702 5695 5689 5682 5676 5670
5793 5793 5794 5795 5797 5797 5796 5800 5798 5794 5793 5792 5790 5787 5783 5783 5781 5780 5778 5777 5777 5776 5776 5775 5774 5772 5769 5767 5764 5760 5756 5752 5748 5744 5739 5734 5729 5723 5717 5711 5705 5700 5694 5688 5682 5675 5669 5662 5655
5788 5788 5789 5789 5788 5788 5788 5792 5790 5786 5785 5783 5782 5778 5774 5774 5774 5773 5771 5771 5770 5769 5768 5766 5764 5762 5760 5757 5753 5749 5745 5741 5736 5732 5727 5721 5716 5710 5704 5697 5692 5685 5679 5673 5667 5661 5654 5647 5639